FLOCK 4P-12 (44810 NORAD) Tracking and Keplerian Element Data

This shows tracking and keplerian element data for the satellite.

Feedback or suggestion? Click here.




ElementValue
Catalog44810
NameFLOCK 4P-12
Epoch Orbit854
Epoch Day22.45124407
Epoch Year2020
RAAN84.254
Inclination97.5166
Eccentricity0.0014727
Argument of Perigee56.3297
Mean Anonmoly303.934
Mean Motion15.1933387
Decay Rate1.056E-05
L11 44810U 19081G 20022.45124407 .00001056 00000-0 53164-4 0 9994
L22 44810 97.5166 84.2540 0014727 56.3297 303.9340 15.19333870 8548

Live tracking and technical data element details for FLOCK 4P-12 (NORAD 44810). FLOCK 4P-12 can be tracked NOW for your location showing map with azimuth and elevation plus other details from your city location.

Track the satellite on the map from your city or location and see movement details for azimuth, elevation, latitude, longitude, range, height, and movement on the map or in text.







IsCatalogInMostPopularTable: catalog: 44810, numindb: 11
Update: records affected: 1



GetName: 44810 FLOCK 4P-12

Hit Count: updated at: Fri, 24 Jan 2020 11:05:51 GMT